When you browse on this site, cookies collect data to enhance your experience and personalize the content and advertising you see.
Visit our Privacy Policy to learn more. By continuing to use the site, you agree to this use of cookies and data.
  • In United Kingdom
  • List of Countries
  • For 7 days
  • Water Temperature
  • Weather Map
  • Weather Widgets
  • user-avatar
    Login

    Hourly Weather Newburn

    Today, 22 February, Saturday

    Time Temperature Precipitation Wind Pressure Humidity
    00:00 +9°C° 0.6 mm 13 mps 746 mmHg 83%
    01:00 +8°C° 1 mm 13 mps 745 mmHg 83%
    02:00 +8°C° 1 mm 13 mps 745 mmHg 82%
    03:00 +8°C° 1 mm 12 mps 744 mmHg 82%
    04:00 +5°C° 0.9 mm 12 mps 745 mmHg 83%
    05:00 +4°C° 0.9 mm 11 mps 745 mmHg 84%
    06:00 +3°C° 0.9 mm 11 mps 746 mmHg 84%
    07:00 +2°C° 0.2 mm 11 mps 747 mmHg 82%
    08:00 +2°C° 0.2 mm 11 mps 748 mmHg 79%
    09:00 +2°C° 0.2 mm 12 mps 749 mmHg 76%
    10:00 +2°C° 0.2 mm 12 mps 749 mmHg 71%
    11:00 +2°C° 0.2 mm 12 mps 750 mmHg 67%
    12:00 +3°C° 0.2 mm 13 mps 751 mmHg 62%
    13:00 +1°C° 0.2 mm 13 mps 752 mmHg 64%
    14:00 +1°C° 0.2 mm 13 mps 752 mmHg 66%
    15:00 +2°C° 0.2 mm 12 mps 752 mmHg 68%
    16:00 0°C° 0 mm 12 mps 753 mmHg 70%
    17:00 -1°C° 0 mm 11 mps 754 mmHg 72%
    18:00 0°C° 0 mm 10 mps 754 mmHg 74%
    19:00 0°C° 0 mm 10 mps 754 mmHg 75%
    20:00 0°C° 0 mm 9 mps 755 mmHg 76%
    21:00 0°C° 0 mm 9 mps 755 mmHg 77%
    22:00 0°C° 0 mm 9 mps 755 mmHg 79%
    23:00 0°C° 0 mm 9 mps 755 mmHg 81%

    Tomorrow, 23 February, Sunday

    Time Temperature Precipitation Wind Pressure Humidity
    00:00 0°C° 0 mm 9 mps 756 mmHg 83%
    01:00 0°C° 0.1 mm 8 mps 755 mmHg 85%
    02:00 0°C° 0.1 mm 8 mps 755 mmHg 86%
    03:00 0°C° 0.1 mm 7 mps 754 mmHg 88%
    04:00 +1°C° 0.5 mm 6 mps 753 mmHg 90%
    05:00 +1°C° 0.5 mm 5 mps 752 mmHg 92%
    06:00 +1°C° 0.5 mm 4 mps 751 mmHg 94%
    07:00 +1°C° 0.2 mm 4 mps 751 mmHg 93%
    08:00 +1°C° 0.2 mm 5 mps 751 mmHg 93%
    09:00 +1°C° 0.2 mm 5 mps 751 mmHg 93%
    10:00 +1°C° 0.2 mm 6 mps 752 mmHg 86%
    11:00 +1°C° 0.2 mm 8 mps 753 mmHg 80%
    12:00 +1°C° 0.2 mm 9 mps 755 mmHg 73%
    13:00 +1°C° 0 mm 9 mps 755 mmHg 70%
    14:00 +2°C° 0 mm 9 mps 756 mmHg 68%
    15:00 +2°C° 0 mm 9 mps 757 mmHg 65%
    16:00 +2°C° 0 mm 9 mps 758 mmHg 68%
    17:00 +1°C° 0 mm 8 mps 759 mmHg 71%
    18:00 0°C° 0 mm 8 mps 760 mmHg 74%
    19:00 0°C° 0 mm 7 mps 761 mmHg 76%
    20:00 +1°C° 0 mm 6 mps 761 mmHg 79%
    21:00 0°C° 0 mm 5 mps 762 mmHg 81%
    22:00 0°C° 0 mm 4 mps 762 mmHg 82%
    23:00 +1°C° 0 mm 3 mps 762 mmHg 82%

    Day after tomorrow, 24 February, Monday

    Time Temperature Precipitation Wind Pressure Humidity
    00:00 +2°C° 0 mm 2 mps 762 mmHg 83%
    01:00 +1°C° 0.3 mm 3 mps 761 mmHg 86%
    02:00 +1°C° 0.3 mm 3 mps 760 mmHg 89%
    03:00 -1°C° 0.3 mm 4 mps 759 mmHg 93%
    04:00 -1°C° 0.7 mm 6 mps 757 mmHg 92%
    05:00 -1°C° 0.7 mm 8 mps 755 mmHg 91%
    06:00 -1°C° 0.7 mm 9 mps 752 mmHg 90%
    07:00 0°C° 1.4 mm 9 mps 750 mmHg 91%
    08:00 +1°C° 1.4 mm 8 mps 748 mmHg 93%
    09:00 +2°C° 1.4 mm 8 mps 746 mmHg 95%
    10:00 +3°C° 0.7 mm 9 mps 745 mmHg 91%
    11:00 +5°C° 0.7 mm 10 mps 744 mmHg 88%
    12:00 +7°C° 0.7 mm 11 mps 743 mmHg 85%
    13:00 +5°C° 0 mm 12 mps 742 mmHg 82%
    14:00 +4°C° 0 mm 13 mps 742 mmHg 80%
    15:00 +3°C° 0 mm 14 mps 742 mmHg 78%
    16:00 +1°C° 0.2 mm 15 mps 741 mmHg 79%
    17:00 +1°C° 0.2 mm 16 mps 740 mmHg 79%
    18:00 0°C° 0.2 mm 17 mps 739 mmHg 80%
    19:00 +1°C° 0.3 mm 18 mps 739 mmHg 79%
    20:00 +1°C° 0.3 mm 18 mps 739 mmHg 78%
    21:00 +1°C° 0.3 mm 18 mps 739 mmHg 77%
    22:00 +1°C° 0 mm 17 mps 739 mmHg 75%
    23:00 +1°C° 0 mm 16 mps 740 mmHg 74%

    25 February, Tuesday

    Time Temperature Precipitation Wind Pressure Humidity
    00:00 +1°C° 0 mm 15 mps 740 mmHg 73%
    01:00 0°C° 0.1 mm 14 mps 740 mmHg 76%
    02:00 0°C° 0.1 mm 13 mps 741 mmHg 80%
    03:00 -1°C° 0.1 mm 13 mps 741 mmHg 83%
    04:00 -1°C° 0.5 mm 13 mps 741 mmHg 83%
    05:00 -1°C° 0.5 mm 12 mps 741 mmHg 84%
    06:00 -1°C° 0.5 mm 12 mps 741 mmHg 84%
    07:00 -1°C° 0.1 mm 12 mps 741 mmHg 82%
    08:00 -1°C° 0.1 mm 12 mps 741 mmHg 80%
    09:00 0°C° 0.1 mm 12 mps 742 mmHg 79%
    10:00 +1°C° 0 mm 11 mps 742 mmHg 76%
    11:00 +2°C° 0 mm 11 mps 742 mmHg 73%
    12:00 +2°C° 0 mm 11 mps 742 mmHg 69%
    13:00 +2°C° 0 mm 10 mps 742 mmHg 70%
    14:00 +2°C° 0 mm 9 mps 742 mmHg 71%
    15:00 +2°C° 0 mm 9 mps 741 mmHg 72%
    16:00 +1°C° 0.1 mm 8 mps 741 mmHg 75%
    17:00 +2°C° 0.1 mm 7 mps 741 mmHg 79%
    18:00 0°C° 0.1 mm 7 mps 740 mmHg 83%
    19:00 0°C° 0 mm 7 mps 740 mmHg 83%
    20:00 -1°C° 0 mm 7 mps 740 mmHg 82%
    21:00 -1°C° 0 mm 7 mps 740 mmHg 81%
    22:00 -1°C° 0.2 mm 7 mps 740 mmHg 83%
    23:00 -1°C° 0.2 mm 7 mps 740 mmHg 85%

    26 February, Wednesday

    Time Temperature Precipitation Wind Pressure Humidity
    00:00 -1°C° 0.2 mm 7 mps 740 mmHg 87%
    01:00 -1°C° 0.1 mm 8 mps 740 mmHg 85%
    02:00 -1°C° 0.1 mm 8 mps 741 mmHg 84%
    03:00 -1°C° 0.1 mm 8 mps 741 mmHg 82%
    04:00 -1°C° 0 mm 8 mps 742 mmHg 81%
    05:00 -1°C° 0 mm 9 mps 743 mmHg 79%
    06:00 -1°C° 0 mm 9 mps 743 mmHg 78%
    07:00 -1°C° 0 mm 9 mps 744 mmHg 76%
    08:00 0°C° 0 mm 9 mps 745 mmHg 75%
    09:00 0°C° 0 mm 9 mps 746 mmHg 73%
    10:00 +1°C° 0 mm 9 mps 747 mmHg 69%
    11:00 +2°C° 0 mm 9 mps 747 mmHg 65%
    12:00 +4°C° 0 mm 8 mps 748 mmHg 62%
    13:00 +3°C° 0 mm 9 mps 749 mmHg 62%
    14:00 +3°C° 0 mm 9 mps 750 mmHg 63%
    15:00 +3°C° 0 mm 9 mps 750 mmHg 63%
    16:00 +2°C° 0 mm 9 mps 751 mmHg 65%
    17:00 0°C° 0 mm 8 mps 751 mmHg 66%
    18:00 -1°C° 0 mm 8 mps 752 mmHg 67%
    19:00 -1°C° 0 mm 7 mps 752 mmHg 71%
    20:00 -1°C° 0 mm 6 mps 753 mmHg 75%
    21:00 -2°C° 0 mm 6 mps 753 mmHg 80%
    22:00 -1°C° 0 mm 5 mps 753 mmHg 82%
    23:00 -1°C° 0 mm 5 mps 753 mmHg 85%

    27 February, Thursday

    Time Temperature Precipitation Wind Pressure Humidity
    00:00 -1°C° 0 mm 5 mps 753 mmHg 88%
    01:00 -1°C° 0 mm 4 mps 753 mmHg 88%
    02:00 0°C° 0 mm 4 mps 752 mmHg 88%
    03:00 +1°C° 0 mm 3 mps 752 mmHg 89%
    04:00 0°C° 0 mm 3 mps 752 mmHg 89%
    05:00 +1°C° 0 mm 2 mps 751 mmHg 90%
    06:00 +1°C° 0 mm 2 mps 751 mmHg 90%
    07:00 0°C° 0 mm 3 mps 751 mmHg 88%
    08:00 +1°C° 0 mm 3 mps 750 mmHg 86%
    09:00 +1°C° 0 mm 4 mps 750 mmHg 84%
    10:00 +1°C° 0.1 mm 5 mps 748 mmHg 87%
    11:00 +1°C° 0.1 mm 6 mps 747 mmHg 90%
    12:00 0°C° 0.1 mm 7 mps 745 mmHg 93%
    13:00 0°C° 1.1 mm 7 mps 744 mmHg 94%
    14:00 0°C° 1.1 mm 7 mps 742 mmHg 96%
    15:00 0°C° 1.1 mm 8 mps 740 mmHg 97%
    16:00 0°C° 1.7 mm 7 mps 738 mmHg 97%
    17:00 +2°C° 1.7 mm 6 mps 736 mmHg 97%
    18:00 +2°C° 1.7 mm 5 mps 734 mmHg 96%
    19:00 +4°C° 0.3 mm 7 mps 734 mmHg 94%
    20:00 +5°C° 0.3 mm 8 mps 733 mmHg 91%
    21:00 +6°C° 0.3 mm 9 mps 733 mmHg 88%
    22:00 +4°C° 0.2 mm 11 mps 733 mmHg 86%
    23:00 +3°C° 0.2 mm 12 mps 733 mmHg 84%
    Show more